Regional Weather Roundup
Issued by NWS

Home | Current Version | Previous Version | Text Only | Print | Product List | Glossary On
Versions: 1 2 3 4 5 6 7 8 9 10 11 12 13 14 15 16 17 18 19 20 21 22 23 24 25 26 27 28 29 30 31 32 33 34 35 36 37 38 39 40 41 42 43 44 45 46 47 48 49 50
000
ASUS43 KMKX 231021
RWRWI

WISCONSIN REGIONAL WEATHER ROUNDUP
NATIONAL WEATHER SERVICE MILWAUKEE/SULLIVAN WI
500 AM CDT WED MAY 23 2018

NOTE: "FAIR" INDICATES FEW OR NO CLOUDS BELOW 12,000 FEET WITH NO
SIGNIFICANT WEATHER AND/OR OBSTRUCTIONS TO VISIBILITY.

WIZ001-002-006>008-014>016-023>028-231100-
NORTHWEST WISCONSIN

CITY           SKY/WX    TMP DP  RH WIND       PRES   REMARKS
SUPERIOR ARPT  FAIR      51  51 100 SW5       30.09R
ASHLAND        FAIR      53  51  93 SW6       30.09R
HAYWARD        FAIR      45  44  97 CALM      30.13  FOG
SIREN            N/A     49  47  94 CALM      30.11S
CUMBERLAND     FOG       46  46 100 CALM      30.13S VSB 1/4
RICE LAKE      FOG       49  49  99 CALM      30.14S VSB 1/4
CHETEK         FOG       48  48 100 CALM      30.13R VSB 1/2
LADYSMITH      FOG       49  49  98 CALM      30.16R VSB 1/4
EAU CLAIRE     FOG       48  48 100 CALM      30.12R VSB 1/2
MENOMONIE      FOG       52  52 100 CALM      30.12S VSB 1/4
NEW RICHMOND   FAIR      55  54  97 CALM      30.11S FOG
OSCEOLA        FAIR      55  53  93 E5        30.13S
$$

WIZ003>005-009-010-017-018-231100-
NORTH CENTRAL WISCONSIN

CITY           SKY/WX    TMP DP  RH WIND       PRES   REMARKS
MANITOWISH WTR FOG       45  45 100 CALM      30.13R VSB 1/2
ARBOR VITAE    FAIR      52  50  93 CALM      30.13R FOG
WOODRUFF       FAIR      52  50  93 CALM      30.13R FOG
RHINELANDER    FOG       47  46  97 W5        30.13R VSB 1/4
EAGLE RIVER    FOG       45  45 100 CALM      30.12R VSB 1/2
LAND O LAKES   FAIR      42  41  98 CALM      30.15R
PHILLIPS       FOG       47  47 100 CALM      30.13R VSB 1/4
TOMAHAWK       FOG       45  44  97 CALM      30.14R VSB 3/4
MEDFORD        FOG       48  48  99 CALM      30.14R VSB<1/4
MERRILL        FOG       47  47 100 CALM      30.15R VSB 1/2
$$

WIZ029-030-035-036-043>047-231100-
CENTRAL WISCONSIN

CITY           SKY/WX    TMP DP  RH WIND       PRES   REMARKS
WAUSAU         FAIR      53  53 100 NW3       30.14R FOG
MOSINEE        FOG       52  52 100 CALM      30.15R VSB 1/4
MARSHFIELD     FOG       50  50 100 CALM      30.14R VSB 1/4
STEVENS POINT  FAIR      48  48 100 CALM      30.15R
WAUPACA          N/A     55  54  97 CALM      30.14R FOG
WAUTOMA        FOG       49  49 100 W3        30.15R VSB 1/2
WISC RAPIDS    FOG       50  49  96 CALM      30.15R VSB 1/4
CAMP DOUGLAS   FOG       46  46 100 CALM      30.14R VSB 1/4
$$

WIZ011>013-019>022-031-037>040-048>050-231100-
NORTHEAST WISCONSIN

CITY           SKY/WX    TMP DP  RH WIND       PRES   REMARKS
ANTIGO         FOG       48  48 100 CALM      30.14R VSB 1/2
SHAWANO        FAIR      57  55  92 CALM      30.11R
OCONTO         MOCLDY    52  52  99 CALM      30.10R VSB 1/2
STURGEON BAY   FAIR      56  53  90 W6        30.10R
GREEN BAY      FAIR      58  56  93 SW5       30.11R
MANITOWOC      FAIR      59  56  89 W7        30.11S
APPLETON       FAIR      55  55 100 W9        30.11R
CLINTONVILLE   FAIR      56  54  93 W5        30.12R
OSHKOSH        FAIR      54  53  97 SW3       30.13R
$$

WIZ032>034-041-042-053>061-231100-
SOUTHWEST WISCONSIN

CITY           SKY/WX    TMP DP  RH WIND       PRES   REMARKS
LA CROSSE      FAIR      55  53  93 SE3       30.12R
SPARTA         FOG       46  46 100 CALM      30.15R VSB 1/4
VIROQUA        FAIR      55  55 100 CALM      30.13S
BOSCOBEL       FOG       55  54  96 CALM      30.14R VSB 1/4
PRAIRIE DU CHI FAIR      55  54  96 E3        30.13R
PLATTEVILLE    FAIR      56  56 100 CALM      30.15R
$$

WIZ056-057-062-063-064-067-068-231100-
SOUTH CENTRAL WISCONSIN

CITY           SKY/WX    TMP DP  RH WIND       PRES   REMARKS
REEDSBURG      FOG       51  51 100 CALM      30.14R VSB 1/4
BARABOO/DELLS  FOG       50  49  96 CALM      30.14R VSB 1/4
LONE ROCK      FOG       54  54 100 CALM      30.14R VSB 1/4
MINERAL POINT  FAIR      59  59 100 CALM      30.14R
MADISON        FAIR      50  49  96 CALM      30.14R FOG
MIDDLETON      CLOUDY    51  51 100 CALM      30.15R VSB 3/4
WATERTOWN      FOG       49  49 100 CALM      30.14R VSB 1/4
MONROE         FAIR      55  55 100 E3        30.14R FOG
JANESVILLE     FOG       52  52 100 CALM      30.15R VSB 1/4
$$

WIZ051-052-058>065-066-070>072-231100-
SOUTHEAST WISCONSIN

CITY           SKY/WX    TMP DP  RH WIND       PRES   REMARKS
MILWAUKEE      MOCLDY    56  54  93 NW6       30.13R
WAUKESHA       FOG       52  52 100 CALM      30.15R VSB 1/4
MILWAUKEE/TIMM FOG       52  48  87 CALM      30.14S VSB 1/4
RACINE         FAIR      49  49 100 CALM      30.14R FOG
BURLINGTON     FOG       49  48  98 CALM      30.14R VSB 1/2
KENOSHA        FOG       51  49  92 SW3       30.14R VSB 1
FOND DU LAC    FOG       51  50  96 S3        30.14R VSB 1/2
SHEBOYGAN      FAIR      54  53  97 W6        30.12R
WEST BEND      MOCLDY    48  48 100 CALM      30.14R FOG
JUNEAU         FOG       49  49  99 CALM      30.15R VSB<1/4
$$

LSZ147-162-231100-
LAKE SUPERIOR

STATION/POSITION TIME  TEMP    WIND        PRES    WAVE
                       AIR SEA DIR/SP/G            HT/PER
                 (UTC) (F)     (DEG/KT/KT) (MB)    (FT/S)
W MID LAKE BUOY  0950   42 36  210/  6/  8 1018.4R   0
DEVILS ISLAND    1000   59     240/ 13/ 15 1018.3R
SAXON HARBOR     0930   54     190/  4/  7 1017.9R
$$

LMZ867-665-643>646-231100-
LAKE MICHIGAN

STATION/POSITION TIME  TEMP    WIND        PRES    WAVE
                       AIR SEA DIR/SP/G            HT/PER
                 (UTC) (F)     (DEG/KT/KT) (MB)    (FT/S)
N MID LAKE BUOY  1000   40 37  170/  6/  6 1019.0
NORTHPORT PIER   0940   48     160/  1/  2 1018.6R
KEWAUNEE LAKESHO 0954   59     250/  5/  7 1018.2S
SHEBOYGAN LAKESH 1000   59     270/ 10/ 11 1019.8R
PORT WASHINGTON  0940   59     300/  8/ 11 1020.7R
ATWATER BUOY     0937   53 48  320/  4/  6 1020.2R   0
MILWAUKEE LAKESH 1000   58     300/  8/ 10   N/A
S MID LAKE BUOY  0950   42 39  190/  6/  6 1021.2R   0
KENOSHA   LAKESH 1000   53                 1020.7
$$

TC  - TEMPERATURE IN CELSIUS
VSB - VISIBILITY IN STATUTE MILES
WCI - WIND CHILL INDEX
HX  - HEAT INDEX





USA.gov is the U.S. government's official web portal to all federal, state and local government web resources and services.